Location: Oak Glen
(34.0495°N, 116.9470°E)
Time: 02:20:59
(UTC-07:00)

Tiangong 1 - Pass Details

Date: 11 October 2017
Orbit: 294 x 320 km, 42.8° (Epoch: 17 October)

Event Time Altitude Azimuth Distance (km) Brightness Sun altitude
Rises 04:29:23 0° 306° (NW) 2,027 5.7 -22.7°
Reaches altitude 10° 04:31:50 10° 329° (NNW) 1,191 4.0 -23.2°
Enters shadow 04:31:58 11° 331° (NNW) 1,158 3.9 -23.3°
